Location: Fort Wayne
(41.1310°N, 85.1290°W)
Time: 18:29:25
(UTC-04:00)

Cosmos 2056 Rocket - Visible Passes

Search period start: 26 March 2015 00:00
Search period end: 05 April 2015 00:00
Orbit: 743 x 801 km, 74.0° (Epoch: 26 March)

Date Brightness Start Highest point End Pass type
(mag) Time Alt. Az. Time Alt. Az. Time Alt. Az.
28 Mar 6.5 02:29:52 10° N 02:29:54 10° N 02:29:54 10° N visible
31 Mar 6.5 02:24:20 10° N 02:24:26 11° N 02:24:26 11° N visible
01 Apr 6.4 01:48:49 10° N 01:49:13 12° N 01:49:13 12° N visible
02 Apr 6.4 01:13:31 10° N 01:14:00 12° N 01:14:00 12° N visible
03 Apr 6.4 00:38:40 10° NNE 00:38:47 10° NNE 00:38:47 10° NNE visible
03 Apr 6.4 02:19:01 10° NNW 02:19:08 11° NNW 02:19:08 11° NNW visible
04 Apr 6.3 01:43:18 10° NNW 01:43:57 14° N 01:43:57 14° N visible
